Preview of NWS' New Version of Forecast
This preview is not operational and should not be used for support decisions.

Regional Weather Roundup (RWR)

Issued by National Weather Service (NWS)

                            
000
ASUS43 KMKX 231711
RWRWI 

WISCONSIN REGIONAL WEATHER ROUNDUP
NATIONAL WEATHER SERVICE MILWAUKEE/SULLIVAN WI
1200 PM CDT FRI AUG 23 2019

NOTE: "FAIR" INDICATES FEW OR NO CLOUDS BELOW 12,000 FEET WITH NO
SIGNIFICANT WEATHER AND/OR OBSTRUCTIONS TO VISIBILITY.

WIZ001-002-006>008-014>016-023>028-231800-
NORTHWEST WISCONSIN
  
CITY           SKY/WX    TMP DP  RH WIND       PRES   REMARKS
SUPERIOR ARPT  FAIR      66  53  63 NE3       30.27F                  
ASHLAND        FAIR      68  50  52 N9        30.28F                  
HAYWARD        FAIR      68  46  45 SE9       30.28F                  
SIREN          FAIR      69  51  51 SE7       30.26S                  
CUMBERLAND     CLOUDY    64  50  59 SE6       30.27S                  
RICE LAKE      PTSUNNY   70  52  53 E10       30.28S                  
CHETEK         PTSUNNY   68  55  61 SE7       30.27S                  
LADYSMITH      FAIR      68  50  52 E5        30.30S                  
EAU CLAIRE     CLOUDY    68  55  63 VRB6      30.26S                  
MENOMONIE      CLOUDY    65  53  65 SE7       30.26S                  
NEW RICHMOND   FAIR      70  54  56 SE10      30.25S                  
OSCEOLA        FAIR      69  57  64 E12G18    30.27S                  
$$
 
WIZ003>005-009-010-017-018-231800-
NORTH CENTRAL WISCONSIN
  
CITY           SKY/WX    TMP DP  RH WIND       PRES   REMARKS
MANITOWISH WTR FAIR      63  46  54 E5        30.30S                  
ARBOR VITAE    FAIR      67  48  52 SE7       30.30S                  
WOODRUFF       FAIR      67  48  52 SE7       30.30S                  
RHINELANDER    FAIR      63  45  51 NE5       30.30F                  
EAGLE RIVER    PTSUNNY   64  43  46 NE7       30.30R                  
LAND O LAKES   PTSUNNY   66  44  44 NE8       30.31F                  
PHILLIPS       FAIR      64  46  52 NE7       30.28F                  
TOMAHAWK       FAIR      65  45  48 E3        30.30S                  
MEDFORD        FAIR      61  50  66 NE5       30.28F                  
MERRILL        FAIR      66  49  54 NE5       30.29F                  
$$
 
WIZ029-030-035-036-043>047-231800-
CENTRAL WISCONSIN
  
CITY           SKY/WX    TMP DP  RH WIND       PRES   REMARKS
WAUSAU         PTSUNNY   66  49  54 VRB3      30.27F                  
MOSINEE        MOSUNNY   66  54  63 SE5       30.29F                  
MARSHFIELD     FAIR      68  54  60 E6        30.27F                  
STEVENS POINT  PTSUNNY   65  51  60 E6        30.29F                  
WAUPACA        FAIR      71  50  47 S6        30.28F                  
WAUTOMA        FAIR      68  53  58 E6        30.28F                  
WISC RAPIDS    FAIR      70  52  52 VRB3      30.28F                  
CAMP DOUGLAS   PTSUNNY   68  57  68 E8        30.26F                  
$$
 
WIZ011>013-019>022-031-037>040-048>050-231800-
NORTHEAST WISCONSIN
  
CITY           SKY/WX    TMP DP  RH WIND       PRES   REMARKS
ANTIGO         FAIR      65  46  50 CALM      30.29F                  
SHAWANO        FAIR      67  51  56 E5        30.29S                  
OCONTO         FAIR      66  52  60 E6        30.28S                  
STURGEON BAY   FAIR      65  56  72 N10       30.28S                  
GREEN BAY      FAIR      68  51  54 NE12      30.28S                  
MANITOWOC      PTSUNNY   68  52  56 NE8       30.27F                  
APPLETON       PTSUNNY   66  52  59 NE6       30.27S                  
CLINTONVILLE   FAIR      67  49  51 NE8       30.28F                  
OSHKOSH        FAIR      67  53  61 VRB6      30.27S                  
$$
 
WIZ032>034-041-042-053>061-231800-
SOUTHWEST WISCONSIN
  
CITY           SKY/WX    TMP DP  RH WIND       PRES   REMARKS
LA CROSSE      PTSUNNY   74  54  49 VRB7      30.24S                  
SPARTA         PTSUNNY   68  55  61 E3        30.26F                  
VIROQUA        PTSUNNY   69  59  71 SE7       30.26S                  
BOSCOBEL       FAIR      75  56  51 E7        30.24S                  
PRAIRIE DU CHI FAIR      73  53  49 SE8       30.22F                  
PLATTEVILLE    FAIR      72  61  68 E8        30.24S                  
$$

WIZ056-057-062-063-064-067-068-231800-
SOUTH CENTRAL WISCONSIN
  
CITY           SKY/WX    TMP DP  RH WIND       PRES   REMARKS
REEDSBURG      CLOUDY    69  55  60 CALM      30.26S                  
BARABOO/DELLS  PTSUNNY   68  54  60 E5        30.26F                  
LONE ROCK      FAIR      70  57  63 E8        30.25F                  
MINERAL POINT  FAIR      72  59  64 E6        30.25S                  
MADISON        PTSUNNY   71  55  56 E9        30.24F                  
MIDDLETON      FAIR     N/A N/A N/A E7        30.25F                  
WATERTOWN      PTSUNNY   70  55  58 E6        30.25S                  
MONROE         CLOUDY    71  55  58 E8        30.24F                  
JANESVILLE     MOSUNNY   73  54  49 NE6       30.24S                  
$$
 
WIZ051-052-058>065-066-070>072-231800-
SOUTHEAST WISCONSIN
  
CITY           SKY/WX    TMP DP  RH WIND       PRES   REMARKS
MILWAUKEE      PTSUNNY   72  56  57 NE14      30.25S                  
WAUKESHA       PTSUNNY   68  54  60 E10       30.26S                  
MILWAUKEE/TIMM CLOUDY    70  52  52 NE12      30.26S                  
RACINE         PTSUNNY   70  54  56 E8        30.26S                  
KENOSHA        CLOUDY    71  57  61 E15       30.25S                  
FOND DU LAC    FAIR      71  53  52 N9        30.27S                  
SHEBOYGAN      NOT AVBL                                               
WEST BEND      PTSUNNY   68  54  60 NE8       30.26F                  
JUNEAU         PTSUNNY   69  54  59 CALM      30.27S                  
$$

LSZ147-162-231800-
LAKE SUPERIOR
  
STATION/POSITION TIME  TEMP    WIND        PRES    WAVE
                       AIR SEA DIR/SP/G            HT/PER
                 (UTC) (F)     (DEG/KT/KT) (MB)    (FT/S)
W MID LAKE BUOY  1650   62 64   80/  6/  8 1025.6F   0
DEVILS ISLAND    1600   63     110/  7/  9 1026.0R
SAXON HARBOR     1640   64      20/  5/  7 1025.1F
$$
 
LMZ867-665-643>646-231800-
LAKE MICHIGAN
  
STATION/POSITION TIME  TEMP    WIND        PRES    WAVE
                       AIR SEA DIR/SP/G            HT/PER
                 (UTC) (F)     (DEG/KT/KT) (MB)    (FT/S)
S GREEN BAY BUOY 1630   69 69   40/ 10/ 12 1025.4F
N MID LAKE BUOY  1650   64 70   20/ 12/ 14 1025.4R   2/ 4
NORTHPORT PIER   1640   65     330/  5/  6 1025.1S
KEWAUNEE LAKESHO 1624   69      40/  3/  8 1024.6
SHEBOYGAN LAKESH 1700   64      40/ 12/ 13 1025.1S
PORT WASHINGTON  1640   69      50/ 10/ 14 1025.7S
ATWATER BUOY     1630   67 69   60/ 12/ 14 1024.6R   2/ 4
S MID LAKE BUOY  1650   66 73   40/ 12/ 16 1024.3F   2/ 4
KENOSHA   LAKESH 1700   67      70/  9/ 12 1023.7
$$

TC  - TEMPERATURE IN CELSIUS
VSB - VISIBILITY IN STATUTE MILES
WCI - WIND CHILL INDEX
HX  - HEAT INDEX